Year,Month,Day,Hour,Minute,Value (Times are PST for temperature in C)
2015,04,28,00,00,11.80
2015,04,28,00,01,11.80
2015,04,28,00,02,11.80
2015,04,28,00,03,11.80
2015,04,28,00,04,11.80
2015,04,28,00,05,11.80
2015,04,28,00,06,11.80
2015,04,28,00,07,11.80
2015,04,28,00,08,11.80
2015,04,28,00,09,11.80
2015,04,28,00,10,11.80
2015,04,28,00,11,11.80
2015,04,28,00,12,11.80
2015,04,28,00,13,11.80
2015,04,28,00,14,11.80
2015,04,28,00,15,11.80
2015,04,28,00,16,11.80
2015,04,28,00,17,11.80
2015,04,28,00,18,11.80
2015,04,28,00,19,11.80
2015,04,28,00,20,11.80
2015,04,28,00,21,11.80
2015,04,28,00,22,11.80
2015,04,28,00,23,11.80
2015,04,28,00,24,11.80
2015,04,28,00,25,11.90
2015,04,28,00,26,11.90
2015,04,28,00,27,11.90
2015,04,28,00,28,11.90
2015,04,28,00,29,11.90
2015,04,28,00,30,11.90
2015,04,28,00,31,11.90
2015,04,28,00,32,11.90
2015,04,28,00,33,11.90
2015,04,28,00,34,11.90
2015,04,28,00,35,11.90
2015,04,28,00,36,11.90
2015,04,28,00,37,11.90
2015,04,28,00,38,11.90
2015,04,28,00,39,11.90
2015,04,28,00,40,11.90
2015,04,28,00,41,11.90
2015,04,28,00,42,11.90
2015,04,28,00,43,11.90
2015,04,28,00,44,11.90
2015,04,28,00,45,11.90
2015,04,28,00,46,11.90
2015,04,28,00,47,11.80
2015,04,28,00,48,11.80
2015,04,28,00,49,11.80
2015,04,28,00,50,11.80
2015,04,28,00,51,11.80
2015,04,28,00,52,11.80
2015,04,28,00,53,11.80
2015,04,28,00,54,11.80
2015,04,28,00,55,11.80
2015,04,28,00,56,11.80
2015,04,28,00,57,11.80
2015,04,28,00,58,11.80
2015,04,28,00,59,11.80
2015,04,28,01,00,11.80
2015,04,28,01,01,11.80
2015,04,28,01,02,11.80
2015,04,28,01,03,11.80
2015,04,28,01,04,11.80
2015,04,28,01,05,11.80
2015,04,28,01,06,11.80
2015,04,28,01,07,11.80
2015,04,28,01,08,11.80
2015,04,28,01,09,11.70
2015,04,28,01,10,11.70
2015,04,28,01,11,11.70
2015,04,28,01,12,11.70
2015,04,28,01,13,11.80
2015,04,28,01,14,11.80
2015,04,28,01,15,11.80
2015,04,28,01,16,11.80
2015,04,28,01,17,11.80
2015,04,28,01,18,11.80
2015,04,28,01,19,11.80
2015,04,28,01,20,11.80
2015,04,28,01,21,11.80
2015,04,28,01,22,11.80
2015,04,28,01,23,11.80
2015,04,28,01,24,11.80
2015,04,28,01,25,11.80
2015,04,28,01,26,11.80
2015,04,28,01,27,11.80
2015,04,28,01,28,11.80
2015,04,28,01,29,11.80
2015,04,28,01,30,11.80
2015,04,28,01,31,11.80
2015,04,28,01,32,11.80
2015,04,28,01,33,11.90
2015,04,28,01,34,11.90
2015,04,28,01,35,11.90
2015,04,28,01,36,11.90
2015,04,28,01,37,11.90
2015,04,28,01,38,11.90
2015,04,28,01,39,11.90
2015,04,28,01,40,11.90
2015,04,28,01,41,11.90
2015,04,28,01,42,11.90
2015,04,28,01,43,11.90
2015,04,28,01,44,11.90
2015,04,28,01,45,11.90
2015,04,28,01,46,11.90
2015,04,28,01,47,11.90
2015,04,28,01,48,11.90
2015,04,28,01,49,11.80
2015,04,28,01,50,11.90
2015,04,28,01,51,11.80
2015,04,28,01,52,11.90
2015,04,28,01,53,11.80
2015,04,28,01,54,11.80
2015,04,28,01,55,11.80
2015,04,28,01,56,11.80
2015,04,28,01,57,11.90
2015,04,28,01,58,11.90
2015,04,28,01,59,11.90
2015,04,28,02,00,12.10
2015,04,28,02,01,12.40
2015,04,28,02,02,12.70
2015,04,28,02,03,13.00
2015,04,28,02,04,13.30
2015,04,28,02,05,13.60
2015,04,28,02,06,13.80
2015,04,28,02,07,13.90
2015,04,28,02,08,13.90
2015,04,28,02,09,13.90
2015,04,28,02,10,13.70
2015,04,28,02,11,13.60
2015,04,28,02,12,13.40
2015,04,28,02,13,13.30
2015,04,28,02,14,13.10
2015,04,28,02,15,13.10
2015,04,28,02,16,13.10
2015,04,28,02,17,13.10
2015,04,28,02,18,13.20
2015,04,28,02,19,13.40
2015,04,28,02,20,13.60
2015,04,28,02,21,13.90
2015,04,28,02,22,14.20
2015,04,28,02,23,14.40
2015,04,28,02,24,14.60
2015,04,28,02,25,14.60
2015,04,28,02,26,14.70
2015,04,28,02,27,14.80
2015,04,28,02,28,14.80
2015,04,28,02,29,14.80
2015,04,28,02,30,14.80
2015,04,28,02,31,14.80
2015,04,28,02,32,14.80
2015,04,28,02,33,14.80
2015,04,28,02,34,14.90
2015,04,28,02,35,14.90
2015,04,28,02,36,14.90
2015,04,28,02,37,14.90
2015,04,28,02,38,14.90
2015,04,28,02,39,14.80
2015,04,28,02,40,14.80
2015,04,28,02,41,14.80
2015,04,28,02,42,14.80
2015,04,28,02,43,14.80
2015,04,28,02,44,14.80
2015,04,28,02,45,14.80
2015,04,28,02,46,14.90
2015,04,28,02,47,14.90
2015,04,28,02,48,14.90
2015,04,28,02,49,14.90
2015,04,28,02,50,14.90
2015,04,28,02,51,14.90
2015,04,28,02,52,14.90
2015,04,28,02,53,14.90
2015,04,28,02,54,14.90
2015,04,28,02,55,14.90
2015,04,28,02,56,14.90
2015,04,28,02,57,14.80
2015,04,28,02,58,14.80
2015,04,28,02,59,14.80
2015,04,28,03,00,14.80
2015,04,28,03,01,14.90
2015,04,28,03,02,14.90
2015,04,28,03,03,14.90
2015,04,28,03,06,14.90
2015,04,28,03,07,14.90
2015,04,28,03,08,14.90
2015,04,28,03,09,14.90
2015,04,28,03,10,14.90
2015,04,28,03,11,14.90
2015,04,28,03,12,14.90
2015,04,28,03,13,14.90
2015,04,28,03,14,14.90
2015,04,28,03,15,14.90
2015,04,28,03,16,14.90
2015,04,28,03,17,14.90
2015,04,28,03,18,14.90
2015,04,28,03,19,14.90
2015,04,28,03,20,14.90
2015,04,28,03,21,14.90
2015,04,28,03,22,14.90
2015,04,28,03,23,14.90
2015,04,28,03,24,14.90
2015,04,28,03,25,14.90
2015,04,28,03,26,14.90
2015,04,28,03,27,14.90
2015,04,28,03,28,14.90
2015,04,28,03,29,14.90
2015,04,28,03,30,14.80
2015,04,28,03,31,14.80
2015,04,28,03,32,14.80
2015,04,28,03,33,14.80
2015,04,28,03,34,14.80
2015,04,28,03,35,14.80
2015,04,28,03,36,14.70
2015,04,28,03,37,14.70
2015,04,28,03,38,14.70
2015,04,28,03,39,14.70
2015,04,28,03,40,14.60
2015,04,28,03,41,14.60
2015,04,28,03,42,14.60
2015,04,28,03,43,14.60
2015,04,28,03,44,14.60
2015,04,28,03,45,14.50
2015,04,28,03,46,14.50
2015,04,28,03,47,14.40
2015,04,28,03,48,14.40
2015,04,28,03,49,14.40
2015,04,28,03,50,14.40
2015,04,28,03,51,14.40
2015,04,28,03,52,14.40
2015,04,28,03,53,14.40
2015,04,28,03,54,14.30
2015,04,28,03,55,14.30
2015,04,28,03,56,14.30
2015,04,28,03,57,14.20
2015,04,28,03,58,14.20
2015,04,28,03,59,14.20
2015,04,28,04,00,14.10
2015,04,28,04,01,14.10
2015,04,28,04,02,14.10
2015,04,28,04,03,14.00
2015,04,28,04,04,14.00
2015,04,28,04,05,14.00
2015,04,28,04,06,14.00
2015,04,28,04,07,13.90
2015,04,28,04,08,13.90
2015,04,28,04,09,13.90
2015,04,28,04,10,13.80
2015,04,28,04,11,13.80
2015,04,28,04,12,13.80
2015,04,28,04,13,13.80
2015,04,28,04,14,13.80
2015,04,28,04,15,13.80
2015,04,28,04,16,13.70
2015,04,28,04,17,13.70
2015,04,28,04,18,13.70
2015,04,28,04,19,13.70
2015,04,28,04,20,13.70
2015,04,28,04,21,13.70
2015,04,28,04,22,13.70
2015,04,28,04,23,13.70
2015,04,28,04,24,13.70
2015,04,28,04,25,13.70
2015,04,28,04,26,13.70
2015,04,28,04,27,13.70
2015,04,28,04,28,13.70
2015,04,28,04,29,13.70
2015,04,28,04,30,13.70
2015,04,28,04,31,13.70
2015,04,28,04,32,13.70
2015,04,28,04,33,13.70
2015,04,28,04,34,13.70
2015,04,28,04,35,13.70
2015,04,28,04,36,13.70
2015,04,28,04,37,13.70
2015,04,28,04,38,13.70
2015,04,28,04,39,13.70
2015,04,28,04,40,13.70
2015,04,28,04,41,13.70
2015,04,28,04,42,13.60
2015,04,28,04,43,13.70
2015,04,28,04,44,13.60
2015,04,28,04,45,13.60
2015,04,28,04,46,13.60
2015,04,28,04,47,13.60
2015,04,28,04,48,13.60
2015,04,28,04,49,13.60
2015,04,28,04,50,13.70
2015,04,28,04,51,13.70
2015,04,28,04,52,13.70
2015,04,28,04,53,13.70
2015,04,28,04,54,13.70
2015,04,28,04,55,13.70
2015,04,28,04,56,13.70
2015,04,28,04,57,13.60
2015,04,28,04,58,13.60
2015,04,28,04,59,13.50
2015,04,28,05,00,13.40
2015,04,28,05,01,13.30
2015,04,28,05,02,13.30
2015,04,28,05,03,13.20
2015,04,28,05,04,13.10
2015,04,28,05,05,13.10
2015,04,28,05,06,13.10
2015,04,28,05,07,13.00
2015,04,28,05,08,13.00
2015,04,28,05,09,12.90
2015,04,28,05,10,12.90
2015,04,28,05,11,12.90
2015,04,28,05,12,12.80
2015,04,28,05,13,12.80
2015,04,28,05,14,12.80
2015,04,28,05,15,12.80
2015,04,28,05,16,12.70
2015,04,28,05,17,12.70
2015,04,28,05,18,12.70
2015,04,28,05,19,12.70
2015,04,28,05,20,12.70
2015,04,28,05,21,12.70
2015,04,28,05,22,12.60
2015,04,28,05,23,12.60
2015,04,28,05,24,12.60
2015,04,28,05,25,12.60
2015,04,28,05,26,12.60
2015,04,28,05,27,12.60
2015,04,28,05,28,12.60
2015,04,28,05,29,12.60
2015,04,28,05,30,12.60
2015,04,28,05,31,12.60
2015,04,28,05,32,12.50
2015,04,28,05,33,12.50
2015,04,28,05,34,12.50
2015,04,28,05,35,12.50
2015,04,28,05,36,12.50
2015,04,28,05,37,12.50
2015,04,28,05,38,12.40
2015,04,28,05,39,12.40
2015,04,28,05,40,12.30
2015,04,28,05,41,12.30
2015,04,28,05,42,12.30
2015,04,28,05,43,12.30
2015,04,28,05,44,12.20
2015,04,28,05,45,12.20
2015,04,28,05,46,12.10
2015,04,28,05,47,12.10
2015,04,28,05,48,12.00
2015,04,28,05,49,11.90
2015,04,28,05,50,11.90
2015,04,28,05,51,11.80
2015,04,28,05,52,11.80
2015,04,28,05,53,11.70
2015,04,28,05,54,11.70
2015,04,28,05,55,11.60
2015,04,28,05,56,11.50
2015,04,28,05,57,11.50
2015,04,28,05,58,11.40
2015,04,28,05,59,11.40
2015,04,28,06,00,11.40
2015,04,28,06,01,11.30
2015,04,28,06,02,11.30
2015,04,28,06,03,11.20
2015,04,28,06,04,11.20
2015,04,28,06,05,11.10
2015,04,28,06,06,11.10
2015,04,28,06,07,11.00
2015,04,28,06,08,11.00
2015,04,28,06,09,10.90
2015,04,28,06,10,10.90
2015,04,28,06,11,10.90
2015,04,28,06,12,10.80
2015,04,28,06,13,10.80
2015,04,28,06,14,10.80
2015,04,28,06,15,10.70
2015,04,28,06,16,10.70
2015,04,28,06,17,10.70
2015,04,28,06,18,10.60
2015,04,28,06,19,10.60
2015,04,28,06,20,10.50
2015,04,28,06,21,10.50
2015,04,28,06,22,10.40
2015,04,28,06,23,10.40
2015,04,28,06,24,10.30
2015,04,28,06,25,10.30
2015,04,28,06,26,10.20
2015,04,28,06,27,10.20
2015,04,28,06,28,10.10
2015,04,28,06,29,10.10
2015,04,28,06,30,10.10
2015,04,28,06,31,10.00
2015,04,28,06,32,10.00
2015,04,28,06,33,10.00
2015,04,28,06,34,10.00
2015,04,28,06,35,9.90
2015,04,28,06,36,9.90
2015,04,28,06,37,9.90
2015,04,28,06,38,10.00
2015,04,28,06,39,10.00
2015,04,28,06,40,10.20
2015,04,28,06,41,10.30
2015,04,28,06,42,10.30
2015,04,28,06,43,10.30
2015,04,28,06,44,10.40
2015,04,28,06,45,10.40
2015,04,28,06,46,10.40
2015,04,28,06,47,10.40
2015,04,28,06,48,10.40
2015,04,28,06,49,10.40
2015,04,28,06,50,10.40
2015,04,28,06,51,10.40
2015,04,28,06,52,10.40
2015,04,28,06,53,10.30
2015,04,28,06,54,10.30
2015,04,28,06,55,10.30
2015,04,28,06,56,10.30
2015,04,28,06,57,10.30
2015,04,28,06,58,10.20
2015,04,28,06,59,10.20
2015,04,28,07,00,10.20
2015,04,28,07,01,10.20
2015,04,28,07,02,10.20
2015,04,28,07,03,10.10
2015,04,28,07,04,10.10
2015,04,28,07,05,10.10
2015,04,28,07,06,10.10
2015,04,28,07,07,10.10
2015,04,28,07,08,10.10
2015,04,28,07,09,10.10
2015,04,28,07,10,10.10
2015,04,28,07,11,10.10
2015,04,28,07,12,10.10
2015,04,28,07,13,10.10
2015,04,28,07,14,10.10
2015,04,28,07,15,10.00
2015,04,28,07,16,10.00
2015,04,28,07,17,10.00
2015,04,28,07,18,9.90
2015,04,28,07,19,9.90
2015,04,28,07,20,9.90
2015,04,28,07,21,9.90
2015,04,28,07,22,9.80
2015,04,28,07,23,9.80
2015,04,28,07,24,9.80
2015,04,28,07,25,9.70
2015,04,28,07,26,9.70
2015,04,28,07,27,9.70
2015,04,28,07,28,9.60
2015,04,28,07,29,9.60
2015,04,28,07,30,9.60
2015,04,28,07,31,9.60
2015,04,28,07,32,9.60
2015,04,28,07,33,9.60
2015,04,28,07,34,9.50
2015,04,28,07,35,9.50
2015,04,28,07,36,9.40
2015,04,28,07,37,9.40
2015,04,28,07,38,9.30
2015,04,28,07,39,9.30
2015,04,28,07,40,9.30
2015,04,28,07,41,9.20
2015,04,28,07,42,9.20
2015,04,28,07,43,9.10
2015,04,28,07,44,9.00
2015,04,28,07,45,9.00
2015,04,28,07,46,8.90
2015,04,28,07,47,8.90
2015,04,28,07,48,8.90
2015,04,28,07,49,8.80
2015,04,28,07,50,8.80
2015,04,28,07,51,8.80
2015,04,28,07,52,8.80
2015,04,28,07,53,8.80
2015,04,28,07,54,8.80
2015,04,28,07,55,8.70
2015,04,28,07,56,8.70
2015,04,28,07,57,8.70
2015,04,28,07,58,8.60
2015,04,28,07,59,8.60
2015,04,28,08,00,8.60
2015,04,28,08,01,8.60
2015,04,28,08,02,8.60
2015,04,28,08,03,8.50
2015,04,28,08,04,8.50
2015,04,28,08,05,8.50
2015,04,28,08,06,8.40
2015,04,28,08,07,8.40
2015,04,28,08,08,8.40
2015,04,28,08,09,8.40
2015,04,28,08,10,8.40
2015,04,28,08,11,8.40
2015,04,28,08,12,8.30
2015,04,28,08,13,8.30
2015,04,28,08,14,8.30
2015,04,28,08,15,8.30
2015,04,28,08,16,8.30
2015,04,28,08,17,8.30
2015,04,28,08,18,8.30
2015,04,28,08,19,8.30
2015,04,28,08,20,8.30
2015,04,28,08,21,8.30
2015,04,28,08,22,8.40
2015,04,28,08,23,8.30
2015,04,28,08,24,8.30
2015,04,28,08,25,8.30
2015,04,28,08,26,8.30
2015,04,28,08,27,8.30
2015,04,28,08,28,8.30
2015,04,28,08,29,8.30
2015,04,28,08,30,8.30
2015,04,28,08,31,8.30
2015,04,28,08,32,8.30
2015,04,28,08,33,8.30
2015,04,28,08,34,8.30
2015,04,28,08,35,8.30
2015,04,28,08,36,8.30
2015,04,28,08,37,8.30
2015,04,28,08,38,8.30
2015,04,28,08,39,8.30
2015,04,28,08,40,8.30
2015,04,28,08,41,8.30
2015,04,28,08,42,8.30
2015,04,28,08,43,8.40
2015,04,28,08,44,8.40
2015,04,28,08,45,8.40
2015,04,28,08,46,8.40
2015,04,28,08,47,8.40
2015,04,28,08,48,8.40
2015,04,28,08,49,8.50
2015,04,28,08,50,8.50
2015,04,28,08,51,8.60
2015,04,28,08,52,8.60
2015,04,28,08,53,8.60
2015,04,28,08,54,8.70
2015,04,28,08,55,8.70
2015,04,28,08,56,8.70
2015,04,28,08,57,8.80
2015,04,28,08,58,8.80
2015,04,28,08,59,8.80
2015,04,28,09,00,8.80
2015,04,28,09,01,8.90
2015,04,28,09,02,8.90
2015,04,28,09,03,8.90
2015,04,28,09,04,9.00
2015,04,28,09,05,9.10
2015,04,28,09,06,9.10
2015,04,28,09,07,9.10
2015,04,28,09,08,9.20
2015,04,28,09,09,9.20
2015,04,28,09,10,9.20
2015,04,28,09,11,9.30
2015,04,28,09,12,9.30
2015,04,28,09,13,9.30
2015,04,28,09,14,9.40
2015,04,28,09,15,9.40
2015,04,28,09,16,9.40
2015,04,28,09,17,9.50
2015,04,28,09,18,9.50
2015,04,28,09,19,9.60
2015,04,28,09,20,9.60
2015,04,28,09,21,9.60
2015,04,28,09,22,9.70
2015,04,28,09,23,9.70
2015,04,28,09,24,9.70
2015,04,28,09,25,9.70
2015,04,28,09,26,9.70
2015,04,28,09,27,9.70
2015,04,28,09,28,9.70
2015,04,28,09,29,9.70
2015,04,28,09,30,9.70
2015,04,28,09,31,9.70
2015,04,28,09,32,9.70
2015,04,28,09,33,9.70
2015,04,28,09,34,9.70
2015,04,28,09,35,9.70
2015,04,28,09,36,9.70
2015,04,28,09,37,9.70
2015,04,28,09,38,9.70
2015,04,28,09,39,9.80
2015,04,28,09,40,9.80
2015,04,28,09,41,9.80
2015,04,28,09,42,9.90
2015,04,28,09,43,9.90
2015,04,28,09,44,10.00
2015,04,28,09,45,10.00
2015,04,28,09,46,10.10
2015,04,28,09,47,10.10
2015,04,28,09,48,10.10
2015,04,28,09,49,10.10
2015,04,28,09,50,10.20
2015,04,28,09,51,10.20
2015,04,28,09,52,10.30
2015,04,28,09,53,10.30
2015,04,28,09,54,10.30
2015,04,28,09,55,10.40
2015,04,28,09,56,10.40
2015,04,28,09,57,10.40
2015,04,28,09,58,10.40
2015,04,28,09,59,10.40
2015,04,28,10,00,10.50
2015,04,28,10,01,10.60
2015,04,28,10,02,10.70
2015,04,28,10,03,10.70
2015,04,28,10,04,10.80
2015,04,28,10,05,10.80
2015,04,28,10,06,10.80
2015,04,28,10,07,10.80
2015,04,28,10,08,10.80
2015,04,28,10,09,10.80
2015,04,28,10,10,10.70
2015,04,28,10,11,10.70
2015,04,28,10,12,10.70
2015,04,28,10,13,10.80
2015,04,28,10,14,10.80
2015,04,28,10,15,10.80
2015,04,28,10,16,10.80
2015,04,28,10,17,10.80
2015,04,28,10,18,10.80
2015,04,28,10,19,10.80
2015,04,28,10,20,10.70
2015,04,28,10,21,10.70
2015,04,28,10,22,10.80
2015,04,28,10,23,10.70
2015,04,28,10,24,10.70
2015,04,28,10,25,10.70
2015,04,28,10,26,10.70
2015,04,28,10,27,10.80
2015,04,28,10,28,10.80
2015,04,28,10,29,10.80
2015,04,28,10,30,10.80
2015,04,28,10,31,10.80
2015,04,28,10,32,10.80
2015,04,28,10,33,10.80
2015,04,28,10,34,10.90
2015,04,28,10,35,10.90
2015,04,28,10,36,10.90
2015,04,28,10,37,11.00
2015,04,28,10,38,11.00
2015,04,28,10,39,11.10
2015,04,28,10,40,11.10
2015,04,28,10,41,11.10
2015,04,28,10,42,11.10
2015,04,28,10,43,11.10
2015,04,28,10,44,11.20
2015,04,28,10,45,11.20
2015,04,28,10,46,11.20
2015,04,28,10,47,11.30
2015,04,28,10,48,11.40
2015,04,28,10,49,11.50
2015,04,28,10,50,11.60
2015,04,28,10,51,11.60
2015,04,28,10,52,11.60
2015,04,28,10,53,11.70
2015,04,28,10,54,11.70
2015,04,28,10,55,11.70
2015,04,28,10,56,11.70
2015,04,28,10,57,11.70
2015,04,28,10,58,11.70
2015,04,28,10,59,11.70
2015,04,28,11,00,11.70
2015,04,28,11,01,11.70
2015,04,28,11,02,11.60
2015,04,28,11,03,11.60
2015,04,28,11,04,11.60
2015,04,28,11,05,11.70
2015,04,28,11,06,11.70
2015,04,28,11,07,11.80
2015,04,28,11,08,11.80
2015,04,28,11,09,11.90
2015,04,28,11,10,11.90
2015,04,28,11,11,12.00
2015,04,28,11,12,12.00
2015,04,28,11,13,12.10
2015,04,28,11,14,12.20
2015,04,28,11,15,12.20
2015,04,28,11,16,12.30
2015,04,28,11,17,12.40
2015,04,28,11,18,12.40
2015,04,28,11,19,12.40
2015,04,28,11,20,12.40
2015,04,28,11,21,12.40
2015,04,28,11,22,12.40
2015,04,28,11,23,12.50
2015,04,28,11,24,12.60
2015,04,28,11,25,12.60
2015,04,28,11,26,12.60
2015,04,28,11,27,12.60
2015,04,28,11,28,12.60
2015,04,28,11,29,12.60
2015,04,28,11,30,12.60
2015,04,28,11,31,12.70
2015,04,28,11,32,12.80
2015,04,28,11,33,12.80
2015,04,28,11,34,12.80
2015,04,28,11,35,13.00
2015,04,28,11,36,13.10
2015,04,28,11,37,13.10
2015,04,28,11,38,13.20
2015,04,28,11,39,13.20
2015,04,28,11,40,13.20
2015,04,28,11,41,13.30
2015,04,28,11,42,13.40
2015,04,28,11,43,13.40
2015,04,28,11,44,13.50
2015,04,28,11,45,13.60
2015,04,28,11,46,13.70
2015,04,28,11,47,13.80
2015,04,28,11,48,13.80
2015,04,28,11,49,13.80
2015,04,28,11,50,13.80
2015,04,28,11,51,13.80
2015,04,28,11,52,13.90
2015,04,28,11,53,14.00
2015,04,28,11,54,14.00
2015,04,28,11,55,13.90
2015,04,28,11,56,13.80
2015,04,28,11,57,13.80
2015,04,28,11,58,13.70
2015,04,28,11,59,13.60
2015,04,28,12,00,13.60
2015,04,28,12,01,13.60
2015,04,28,12,02,13.70
2015,04,28,12,03,13.70
2015,04,28,12,04,13.80
2015,04,28,12,05,13.80
2015,04,28,12,06,13.70
2015,04,28,12,07,13.60
2015,04,28,12,08,13.50
2015,04,28,12,09,13.40
2015,04,28,12,10,13.40
2015,04,28,12,11,13.40
2015,04,28,12,12,13.50
2015,04,28,12,13,13.50
2015,04,28,12,14,13.60
2015,04,28,12,15,13.70
2015,04,28,12,16,13.80
2015,04,28,12,17,13.90
2015,04,28,12,18,14.00
2015,04,28,12,19,14.00
2015,04,28,12,20,14.00
2015,04,28,12,21,14.10
2015,04,28,12,22,14.20
2015,04,28,12,23,14.40
2015,04,28,12,24,14.50
2015,04,28,12,25,14.50
2015,04,28,12,26,14.60
2015,04,28,12,27,14.50
2015,04,28,12,28,14.40
2015,04,28,12,29,14.40
2015,04,28,12,30,14.30
2015,04,28,12,31,14.40
2015,04,28,12,32,14.40
2015,04,28,12,33,14.50
2015,04,28,12,34,14.70
2015,04,28,12,35,14.60
2015,04,28,12,36,14.50
2015,04,28,12,37,14.40
2015,04,28,12,38,14.30
2015,04,28,12,39,14.30
2015,04,28,12,40,14.30
2015,04,28,12,41,14.30
2015,04,28,12,42,14.30
2015,04,28,12,43,14.20
2015,04,28,12,44,14.10
2015,04,28,12,45,14.00
2015,04,28,12,46,13.90
2015,04,28,12,47,13.90
2015,04,28,12,48,13.80
2015,04,28,12,49,13.80
2015,04,28,12,50,13.80
2015,04,28,12,51,13.80
2015,04,28,12,52,13.70
2015,04,28,12,53,13.70
2015,04,28,12,54,13.70
2015,04,28,12,55,13.70
2015,04,28,12,56,13.70
2015,04,28,12,57,13.70
2015,04,28,12,58,13.80
2015,04,28,12,59,13.80
2015,04,28,13,00,13.80
2015,04,28,13,01,13.70
2015,04,28,13,02,13.60
2015,04,28,13,03,13.50
2015,04,28,13,04,13.40
2015,04,28,13,05,13.30
2015,04,28,13,06,13.30
2015,04,28,13,07,13.30
2015,04,28,13,08,13.20
2015,04,28,13,09,13.20
2015,04,28,13,10,13.10
2015,04,28,13,11,13.10
2015,04,28,13,12,13.10
2015,04,28,13,13,13.20
2015,04,28,13,14,13.20
2015,04,28,13,15,13.20
2015,04,28,13,16,13.20
2015,04,28,13,17,13.30
2015,04,28,13,18,13.30
2015,04,28,13,19,13.30
2015,04,28,13,20,13.40
2015,04,28,13,21,13.40
2015,04,28,13,22,13.40
2015,04,28,13,23,13.50
2015,04,28,13,24,13.60
2015,04,28,13,25,13.60
2015,04,28,13,26,13.60
2015,04,28,13,27,13.60
2015,04,28,13,28,13.50
2015,04,28,13,29,13.50
2015,04,28,13,30,13.40
2015,04,28,13,31,13.40
2015,04,28,13,32,13.40
2015,04,28,13,33,13.50
2015,04,28,13,34,13.60
2015,04,28,13,35,13.70
2015,04,28,13,36,13.70
2015,04,28,13,37,13.70
2015,04,28,13,38,13.60
2015,04,28,13,39,13.60
2015,04,28,13,40,13.60
2015,04,28,13,41,13.60
2015,04,28,13,42,13.70
2015,04,28,13,43,13.70
2015,04,28,13,44,13.70
2015,04,28,13,45,13.70
2015,04,28,13,46,13.60
2015,04,28,13,47,13.70
2015,04,28,13,48,13.70
2015,04,28,13,49,13.90
2015,04,28,13,50,14.00
2015,04,28,13,51,14.10
2015,04,28,13,52,14.10
2015,04,28,13,53,14.10
2015,04,28,13,54,14.10
2015,04,28,13,55,14.10
2015,04,28,13,56,14.20
2015,04,28,13,57,14.20
2015,04,28,13,58,14.30
2015,04,28,13,59,14.30
2015,04,28,14,00,14.30
2015,04,28,14,01,14.40
2015,04,28,14,02,14.50
2015,04,28,14,03,14.60
2015,04,28,14,04,14.70
2015,04,28,14,05,14.60
2015,04,28,14,06,14.40
2015,04,28,14,07,14.40
2015,04,28,14,08,14.30
2015,04,28,14,09,14.20
2015,04,28,14,10,14.20
2015,04,28,14,11,14.20
2015,04,28,14,12,14.30
2015,04,28,14,13,14.20
2015,04,28,14,14,14.20
2015,04,28,14,15,14.10
2015,04,28,14,16,14.10
2015,04,28,14,17,14.00
2015,04,28,14,18,14.00
2015,04,28,14,19,14.10
2015,04,28,14,20,14.10
2015,04,28,14,21,14.10
2015,04,28,14,22,14.10
2015,04,28,14,23,14.00
2015,04,28,14,24,14.00
2015,04,28,14,25,14.10
2015,04,28,14,26,14.10
2015,04,28,14,27,14.00
2015,04,28,14,28,14.00
2015,04,28,14,29,14.10
2015,04,28,14,30,14.10
2015,04,28,14,31,14.10
2015,04,28,14,32,14.20
2015,04,28,14,33,14.20
2015,04,28,14,34,14.20
2015,04,28,14,35,14.20
2015,04,28,14,36,14.30
2015,04,28,14,37,14.30
2015,04,28,14,38,14.20
2015,04,28,14,39,14.20
2015,04,28,14,40,14.30
2015,04,28,14,41,14.40
2015,04,28,14,42,14.50
2015,04,28,14,43,14.50
2015,04,28,14,44,14.50
2015,04,28,14,45,14.50
2015,04,28,14,46,14.60
2015,04,28,14,47,14.50
2015,04,28,14,48,14.50
2015,04,28,14,49,14.50
2015,04,28,14,50,14.40
2015,04,28,14,51,14.30
2015,04,28,14,52,14.30
2015,04,28,14,53,14.30
2015,04,28,14,54,14.30
2015,04,28,14,55,14.30
2015,04,28,14,56,14.30
2015,04,28,14,57,14.40
2015,04,28,14,58,14.40
2015,04,28,14,59,14.40
2015,04,28,15,00,14.30
2015,04,28,15,01,14.30
2015,04,28,15,02,14.30
2015,04,28,15,03,14.30
2015,04,28,15,04,14.30
2015,04,28,15,05,14.30
2015,04,28,15,06,14.30
2015,04,28,15,07,14.30
2015,04,28,15,08,14.20
2015,04,28,15,09,14.20
2015,04,28,15,10,14.20
2015,04,28,15,11,14.10
2015,04,28,15,12,14.10
2015,04,28,15,13,14.10
2015,04,28,15,14,14.00
2015,04,28,15,15,13.90
2015,04,28,15,16,13.90
2015,04,28,15,17,13.80
2015,04,28,15,18,13.70
2015,04,28,15,19,13.70
2015,04,28,15,20,13.70
2015,04,28,15,21,13.70
2015,04,28,15,22,13.70
2015,04,28,15,23,13.70
2015,04,28,15,24,13.70
2015,04,28,15,25,13.70
2015,04,28,15,26,13.70
2015,04,28,15,27,13.70
2015,04,28,15,28,13.80
2015,04,28,15,29,13.80
2015,04,28,15,30,13.80
2015,04,28,15,31,13.80
2015,04,28,15,32,13.80
2015,04,28,15,33,13.80
2015,04,28,15,34,13.80
2015,04,28,15,35,13.80
2015,04,28,15,36,13.80
2015,04,28,15,37,13.90
2015,04,28,15,38,13.90
2015,04,28,15,39,14.00
2015,04,28,15,40,14.00
2015,04,28,15,41,14.00
2015,04,28,15,42,13.90
2015,04,28,15,43,13.90
2015,04,28,15,44,13.90
2015,04,28,15,45,13.90
2015,04,28,15,46,13.90
2015,04,28,15,47,13.90
2015,04,28,15,48,14.00
2015,04,28,15,49,14.00
2015,04,28,15,50,14.10
2015,04,28,15,51,14.10
2015,04,28,15,52,14.10
2015,04,28,15,53,14.10
2015,04,28,15,54,14.20
2015,04,28,15,55,14.20
2015,04,28,15,56,14.20
2015,04,28,15,57,14.20
2015,04,28,15,58,14.10
2015,04,28,15,59,14.10
2015,04,28,16,00,14.10
2015,04,28,16,01,14.10
2015,04,28,16,02,14.20
2015,04,28,16,03,14.20
2015,04,28,16,04,14.20
2015,04,28,16,05,14.20
2015,04,28,16,06,14.30
2015,04,28,16,07,14.30
2015,04,28,16,08,14.30
2015,04,28,16,09,14.20
2015,04,28,16,10,14.10
2015,04,28,16,11,14.00
2015,04,28,16,12,14.00
2015,04,28,16,13,13.90
2015,04,28,16,14,13.90
2015,04,28,16,15,13.90
2015,04,28,16,16,13.80
2015,04,28,16,17,13.80
2015,04,28,16,18,13.80
2015,04,28,16,19,13.80
2015,04,28,16,20,13.80
2015,04,28,16,21,13.80
2015,04,28,16,22,13.70
2015,04,28,16,23,13.80
2015,04,28,16,24,13.70
2015,04,28,16,25,13.70
2015,04,28,16,26,13.70
2015,04,28,16,27,13.70
2015,04,28,16,28,13.70
2015,04,28,16,29,13.70
2015,04,28,16,30,13.80
2015,04,28,16,31,13.80
2015,04,28,16,32,13.80
2015,04,28,16,33,13.80
2015,04,28,16,34,13.70
2015,04,28,16,35,13.60
2015,04,28,16,36,13.60
2015,04,28,16,37,13.60
2015,04,28,16,38,13.60
2015,04,28,16,39,13.60
2015,04,28,16,40,13.60
2015,04,28,16,41,13.60
2015,04,28,16,42,13.60
2015,04,28,16,43,13.70
2015,04,28,16,44,13.80
2015,04,28,16,45,13.90
2015,04,28,16,46,13.90
2015,04,28,16,47,13.90
2015,04,28,16,48,13.90
2015,04,28,16,49,13.90
2015,04,28,16,50,13.90
2015,04,28,16,51,13.90
2015,04,28,16,52,13.90
2015,04,28,16,53,13.80
2015,04,28,16,54,13.90
2015,04,28,16,55,13.90
2015,04,28,16,56,14.10
2015,04,28,16,57,14.10
2015,04,28,16,58,14.20
2015,04,28,16,59,14.10
2015,04,28,17,00,14.10
2015,04,28,17,01,14.10
2015,04,28,17,02,14.10
2015,04,28,17,03,14.10
2015,04,28,17,04,14.10
2015,04,28,17,05,14.10
2015,04,28,17,06,14.10
2015,04,28,17,07,14.00
2015,04,28,17,08,14.00
2015,04,28,17,09,13.90
2015,04,28,17,10,13.90
2015,04,28,17,11,13.80
2015,04,28,17,12,13.80
2015,04,28,17,13,13.80
2015,04,28,17,14,13.90
2015,04,28,17,15,13.90
2015,04,28,17,16,13.90
2015,04,28,17,17,13.80
2015,04,28,17,18,13.80
2015,04,28,17,19,13.80
2015,04,28,17,20,13.80
2015,04,28,17,21,13.80
2015,04,28,17,22,13.70
2015,04,28,17,23,13.70
2015,04,28,17,24,13.70
2015,04,28,17,25,13.70
2015,04,28,17,26,13.70
2015,04,28,17,27,13.70